Culebra, VI

6:10 PM AST on February 25, 2017 (GMT -0400)
King

Weather History for TIST - August, 2013

Change the Weather History Date:

Monday, August 5, 2013

  Actual Average Record
Temperature  
Mean Temperature 83 °F 84 °F  
Max Temperature 88 °F 90 °F 98 °F (1979)
Min Temperature 77 °F 78 °F 69 °F (2001)
Degree Days  
Heating Degree Days 0 0  
Month to date heating degree days 0 0  
Since 1 June heating degree days 0 0  
Since 1 July heating degree days 0 0  
Cooling Degree Days 18 19  
Month to date cooling degree days 99 95  
Year to date cooling degree days 3408 3491  
Since 1 June cooling degree days 1212 1239  
Growing Degree Days 34 (Base 50)    
Moisture  
Dew Point 76 °F    
Average Humidity 80    
Maximum Humidity 97    
Minimum Humidity 63    
Precipitation  
Precipitation 1.07 in 0.10 in 2.16 in (2016)
Month to date precipitation 1.25 0.51  
Year to date precipitation 18.80 16.92  
Sea Level Pressure  
Sea Level Pressure 29.98 in    
Wind  
Wind Speed 6 mph (ENE)    
Max Wind Speed 21 mph    
Max Gust Speed 24 mph    
Visibility 10 miles    
Events Rain    
T = Trace of Precipitation, MM = Missing Value Source: NWS Daily Summary

Daily Weather History Graph

Daily Weather History Graph

Search for Another Location

Airport or City:

Trip Planner

Search our weather history database for the weather conditions in past years. The results will help you decide how hot, cold, wet, or windy it might be!

Date:

Astronomy

Aug. 05, 2013 Rise Set
Actual Time 5:59 AM AST 6:52 PM AST
Civil Twilight 5:36 AM AST 7:15 PM AST
Nautical Twilight 5:08 AM AST 7:42 PM AST
Astronomical Twilight 4:41 AM AST 8:10 PM AST
Moon 4:49 AM AST (8/5) 5:55 PM AST (8/5)
Length of Visible Light 13h 39m
Length of Day
12h 53m
Waning Crescent, 1% of the Moon is Illuminated
Aug 5
Waning Crescent
Aug 6
New
Aug 14
First Quarter
Aug 20
Full
Aug 28
Last Quarter

Hourly Weather History & Observations

Time (AST) Temp. Heat Index Dew Point Humidity Pressure Visibility Wind Dir Wind Speed Gust Speed Precip Events Conditions
12:53 AM 82.0 °F 90.2 °F 77.0 °F 85% 29.99 in 10.0 mi ENE 8.1 mph - N/A   Partly Cloudy
1:53 AM 81.0 °F 87.3 °F 75.9 °F 85% 29.99 in 10.0 mi East 9.2 mph - N/A   Clear
2:53 AM 80.1 °F 85.1 °F 75.0 °F 85% 29.96 in 10.0 mi East 6.9 mph - N/A   Clear
3:53 AM 80.1 °F 85.4 °F 75.9 °F 87% 29.97 in 10.0 mi East 4.6 mph - N/A   Clear
4:53 AM 80.1 °F 85.1 °F 75.0 °F 85% 29.97 in 10.0 mi East 6.9 mph - N/A   Clear
5:53 AM 80.1 °F 85.1 °F 75.0 °F 85% 29.99 in 10.0 mi East 5.8 mph - N/A   Clear
6:53 AM 81.0 °F 86.7 °F 75.0 °F 82% 30.00 in 10.0 mi ESE 3.5 mph - N/A   Clear
7:53 AM 84.0 °F 91.9 °F 75.0 °F 74% 30.02 in 10.0 mi East 8.1 mph - N/A   Partly Cloudy
8:53 AM 86.0 °F 95.1 °F 75.0 °F 70% 30.03 in 10.0 mi East 10.4 mph - N/A   Partly Cloudy
9:53 AM 88.0 °F 95.6 °F 73.0 °F 61% 30.03 in 10.0 mi East 9.2 mph - N/A   Partly Cloudy
10:53 AM 84.0 °F 92.6 °F 75.9 °F 76% 30.03 in 10.0 mi SE 15.0 mph - N/A   Overcast
11:53 AM 82.9 °F 91.8 °F 77.0 °F 82% 30.02 in 10.0 mi NNE 3.5 mph - 0.27 in Rain Light Rain
12:53 PM 81.0 °F 87.9 °F 77.0 °F 88% 30.00 in 10.0 mi ENE 8.1 mph - 0.34 in Rain Light Rain
1:53 PM 80.1 °F 85.4 °F 75.9 °F 87% 29.98 in 10.0 mi East 6.9 mph 16.1 mph 0.13 in Rain Rain
2:06 PM 80.6 °F 87.1 °F 77.0 °F 89% 29.97 in 10.0 mi North 5.8 mph - 0.00 in Rain Light Rain
3:53 PM 82.0 °F 91.0 °F 78.1 °F 88% 29.95 in 9.0 mi NE 10.4 mph - 0.03 in Rain Rain
4:05 PM 80.6 °F 86.2 °F 75.2 °F 84% 29.94 in 7.0 mi NW 4.6 mph - 0.10 in Rain Light Rain
4:29 PM 80.6 °F 87.1 °F 77.0 °F 89% 29.94 in 10.0 mi ENE 4.6 mph - 0.14 in   Mostly Cloudy
4:53 PM 81.0 °F 88.6 °F 78.1 °F 91% 29.95 in 10.0 mi Variable 6.9 mph - 0.17 in Rain Rain
5:07 PM 80.6 °F 86.2 °F 75.2 °F 84% 29.94 in 10.0 mi Calm Calm - 0.07 in Rain Light Rain
5:14 PM 80.6 °F 88.1 °F 78.8 °F 94% 29.95 in 10.0 mi Calm Calm - 0.07 in   Mostly Cloudy
5:53 PM 81.0 °F 89.2 °F 79.0 °F 94% 29.95 in 10.0 mi Calm Calm - 0.07 in   Scattered Clouds
6:53 PM 80.1 °F 85.1 °F 75.0 °F 85% 29.97 in 10.0 mi ENE 4.6 mph - N/A   Clear
7:53 PM 80.1 °F 85.1 °F 75.0 °F 85% 29.98 in 10.0 mi ENE 5.8 mph - N/A   Clear
8:53 PM 80.1 °F 85.4 °F 75.9 °F 87% 29.99 in 10.0 mi Calm Calm - N/A   Clear
9:53 PM 79.0 °F - 75.9 °F 90% 30.00 in 10.0 mi Calm Calm - N/A   Clear
10:53 PM 79.0 °F - 77.0 °F 94% 30.01 in 10.0 mi East 6.9 mph - N/A   Clear
11:53 PM 79.0 °F - 75.9 °F 90% 29.99 in 10.0 mi East 5.8 mph - N/A   Clear